[Date Prev][Date Next][Thread Prev][Thread Next] - [Date Index][Thread Index][Author Index]
2 Line ISS Keps 12-31
- Subject: [sarex] 2 Line ISS Keps 12-31
- From: "Dave Larsen PhD" <doc@xxxxxxxxxxx>
- Date: Thu, 30 Dec 2004 18:46:45 -0800
ISS
1 25544U 98067A 04366.01945963 .00025332 00000-0 19288-3 0 4829
2 25544 51.6400 40.8325 0003751 148.3751 290.3898 15.72088056349248
----
Via the sarex mailing list at AMSAT.ORG courtesy of AMSAT-NA.
To unsubscribe, send "unsubscribe sarex" to Majordomo@amsat.org
AMSAT Home